Location: Keewatin
(47.4004°N, 93.0827°W)
Time: 21:27:33
(UTC+00:00)

ZACube-1 - Pass Details

Date: 28 February 2020
Orbit: 583 x 667 km, 97.6° (Epoch: 09 April)

Event Time Altitude Azimuth Distance (km) Brightness Sun altitude
Rises 11:29:17 0° 22° (NNE) 3,019 ? -15.3°
Reaches altitude 10° 11:31:49 10° 34° (NE) 2,096 ? -14.9°
Maximum altitude 11:35:46 28° 94° (E) 1,239 ? -14.2°
Drops below altitude 10° 11:39:38 10° 153° (SSE) 2,055 ? -13.6°
Sets 11:42:05 0° 165° (SSE) 2,947 ? -13.2°
